Date String (YYYY-MM-DD hh:mm:ss) UTC,Instrument flags,Ambient pressure (hPa),Sample flow (lpm),Bypass flow (lpm),Sample temperature (°C),Ambient temperature (°C),ASC tube jacket temperature (°C),LED temperature (°C),Box temperature (°C),Sample RH (%),Span deviation,Mass concentration (μg/m³),Mass concentration (μg/m³),Mass concentration (μg/m³)
DateTimeUTC,F1_M11,P_M11,Q1_M11,Q2_M11,T1_M11,T2_M11,T3_M11,T4_M11,T5_M11,U1_M11,ZSPAN_M11,X0_M11,X2_M11,X1_M11
2023-01-27 01:00:00,,0823.1,5.00,0.00,21.9,20.1,00.0,30.9,23.4,08.0,0000.0,0002.88,0001.01,0000.56
2023-01-27 01:01:00,,0823.0,4.99,0.00,21.9,20.1,00.0,30.9,23.4,08.0,0000.0,0003.20,0001.08,0000.56
2023-01-27 01:02:00,,0823.0,5.00,0.00,21.9,20.6,00.0,30.8,23.6,08.3,0000.0,0003.45,0001.13,0000.57
2023-01-27 01:03:00,,0822.9,5.01,0.00,22.0,21.8,00.0,30.8,23.9,08.3,0000.0,0004.83,0001.24,0000.58
2023-01-27 01:04:00,,0823.0,5.01,0.00,22.1,22.7,00.0,30.8,24.2,08.0,0000.0,0005.51,0001.28,0000.58
2023-01-27 01:05:00,,0822.8,4.99,0.00,22.2,22.4,00.0,30.9,24.2,08.3,0000.0,0006.31,0001.33,0000.60
2023-01-27 01:06:00,,0822.7,5.01,0.00,22.2,21.8,00.0,30.9,24.1,08.2,0000.0,0006.91,0001.38,0000.62
2023-01-27 01:07:00,,0822.7,5.00,0.00,22.2,21.3,00.0,31.0,23.9,08.3,0000.0,0007.79,0001.45,0000.64
2023-01-27 01:08:00,,0822.7,4.98,0.00,22.1,20.9,00.0,31.0,23.7,08.4,0000.0,0008.17,0001.54,0000.65
2023-01-27 01:09:00,,0822.8,5.00,0.00,22.1,20.6,00.0,31.0,23.6,08.4,0000.0,0008.14,0001.52,0000.66
2023-01-27 01:10:00,,0822.7,5.00,0.00,22.0,20.4,00.0,31.0,23.5,08.2,0000.0,0007.94,0001.47,0000.66
2023-01-27 01:11:00,,0822.6,5.01,0.00,22.0,20.2,00.0,30.9,23.5,08.6,0000.0,0007.89,0001.52,0000.66
2023-01-27 01:12:00,,0822.6,5.00,0.00,21.9,20.1,00.0,30.9,23.4,08.8,0000.0,0009.85,0001.76,0000.69
2023-01-27 01:13:00,,0822.6,5.00,0.00,21.9,20.0,00.0,30.9,23.4,08.6,0000.0,0011.19,0001.86,0000.71
2023-01-27 01:14:00,,0822.5,5.02,0.00,21.8,19.9,00.0,30.9,23.4,08.6,0000.0,0011.56,0001.91,0000.72
2023-01-27 01:15:00,,0822.5,5.01,0.00,21.8,20.7,00.0,30.8,23.6,08.6,0000.0,0011.45,0002.08,0000.75
2023-01-27 01:16:00,,0822.6,5.00,0.00,22.0,21.9,00.0,30.8,23.9,08.4,0000.0,0011.43,0002.17,0000.77
2023-01-27 01:17:00,,0822.5,5.00,0.00,22.1,22.6,00.0,30.8,24.1,08.6,0000.0,0011.53,0002.21,0000.77
2023-01-27 01:18:00,,0822.4,5.01,0.00,22.1,22.1,00.0,30.9,24.1,08.6,0000.0,0010.84,0002.28,0000.77
2023-01-27 01:19:00,,0822.3,5.00,0.00,22.1,21.6,00.0,30.9,23.9,08.5,0000.0,0010.81,0002.34,0000.78
2023-01-27 01:20:00,,0822.2,5.01,0.00,22.1,21.1,00.0,30.9,23.8,08.7,0000.0,0011.36,0002.62,0000.79
2023-01-27 01:21:00,,0822.1,5.04,0.00,22.0,20.7,00.0,30.9,23.6,09.1,0000.0,0012.63,0003.05,0000.83
2023-01-27 01:22:00,,0822.2,5.01,0.00,22.0,20.4,00.0,30.9,23.4,08.8,0000.0,0013.84,0003.26,0000.87
2023-01-27 01:23:00,,0822.1,4.98,0.00,21.9,20.1,00.0,30.9,23.3,09.1,0000.0,0013.16,0003.33,0000.88
2023-01-27 01:24:00,,0822.1,5.03,0.00,21.8,19.8,00.0,30.9,23.2,09.3,0000.0,0013.91,0003.45,0000.91
2023-01-27 01:25:00,,0822.1,4.98,0.00,21.7,19.6,00.0,30.8,23.1,09.1,0000.0,0014.50,0003.56,0000.94
2023-01-27 01:26:00,,0822.1,5.01,0.00,21.7,20.2,00.0,30.8,23.3,09.1,0000.0,0015.78,0003.57,0000.93
2023-01-27 01:27:00,,0822.1,4.98,0.00,21.8,21.5,00.0,30.7,23.7,08.9,0000.0,0017.03,0003.63,0000.93
2023-01-27 01:28:00,,0822.1,5.00,0.00,22.0,22.5,00.0,30.7,24.0,08.9,0000.0,0017.24,0003.69,0000.96
2023-01-27 01:29:00,,0822.1,5.00,0.00,22.1,22.8,00.0,30.8,24.2,08.9,0000.0,0018.08,0003.73,0000.98
2023-01-27 01:30:00,,0822.0,5.01,0.00,22.1,22.2,00.0,30.9,24.1,09.3,0000.0,0018.80,0003.80,0001.00
2023-01-27 01:31:00,,0821.9,5.01,0.00,22.1,21.6,00.0,30.9,23.9,09.4,0000.0,0019.28,0003.80,0001.02
2023-01-27 01:32:00,,0821.9,5.02,0.00,22.1,21.0,00.0,30.9,23.7,09.0,0000.0,0018.65,0003.70,0001.01
2023-01-27 01:33:00,,0821.9,5.00,0.00,22.0,20.6,00.0,30.9,23.5,09.2,0000.0,0018.24,0003.60,0001.00
2023-01-27 01:34:00,,0821.8,5.00,0.00,21.9,20.2,00.0,30.9,23.4,09.2,0000.0,0018.56,0003.49,0000.98
2023-01-27 01:35:00,,0821.8,4.98,0.00,21.9,20.0,00.0,30.9,23.3,09.0,0000.0,0016.49,0003.38,0000.95
2023-01-27 01:36:00,,0821.8,5.00,0.00,21.8,19.7,00.0,30.9,23.2,09.1,0000.0,0015.39,0003.31,0000.92
2023-01-27 01:37:00,,0821.7,5.01,0.00,21.8,20.0,00.0,30.8,23.3,09.1,0000.0,0014.89,0003.31,0000.92
2023-01-27 01:38:00,,0822.0,5.00,0.00,21.8,21.2,00.0,30.8,23.6,08.9,0000.0,0013.69,0003.30,0000.91
2023-01-27 01:39:00,,0822.0,5.00,0.00,22.0,22.2,00.0,30.7,24.0,08.9,0000.0,0014.25,0003.24,0000.89
2023-01-27 01:40:00,,0821.9,5.00,0.00,22.1,22.8,00.0,30.8,24.2,09.3,0000.0,0014.01,0003.24,0000.89
2023-01-27 01:41:00,,0822.0,4.99,0.00,22.2,22.3,00.0,30.9,24.1,09.2,0000.0,0013.51,0003.24,0000.89
2023-01-27 01:42:00,,0821.8,4.97,0.00,22.2,21.7,00.0,30.9,23.9,09.1,0000.0,0013.88,0003.15,0000.86
2023-01-27 01:43:00,,0821.9,4.99,0.00,22.1,21.1,00.0,30.9,23.8,09.3,0000.0,0015.35,0003.22,0000.87
2023-01-27 01:44:00,,0822.0,5.01,0.00,22.0,20.6,00.0,30.9,23.6,09.2,0000.0,0015.34,0003.25,0000.87
2023-01-27 01:45:00,,0821.9,5.00,0.00,22.0,20.2,00.0,30.9,23.4,09.4,0000.0,0014.48,0003.28,0000.88
2023-01-27 01:46:00,,0822.0,4.99,0.00,21.9,20.0,00.0,30.9,23.3,09.0,0000.0,0014.32,0003.27,0000.88
2023-01-27 01:47:00,,0822.0,4.99,0.00,21.8,19.7,00.0,30.9,23.2,09.4,0000.0,0014.20,0003.31,0000.89
2023-01-27 01:48:00,,0822.0,4.98,0.00,21.8,20.5,00.0,30.8,23.4,09.5,0000.0,0013.54,0003.33,0000.90
2023-01-27 01:49:00,,0822.0,4.99,0.00,21.9,21.7,00.0,30.8,23.8,09.2,0000.0,0013.36,0003.32,0000.90
2023-01-27 01:50:00,,0822.0,5.02,0.00,22.1,22.6,00.0,30.8,24.1,09.3,0000.0,0012.76,0003.38,0000.91
2023-01-27 01:51:00,,0822.1,4.98,0.00,22.2,22.7,00.0,30.9,24.3,09.5,0000.0,0012.61,0003.37,0000.89
2023-01-27 01:52:00,,0821.9,5.02,0.00,22.2,22.1,00.0,30.9,24.2,09.2,0000.0,0013.68,0003.36,0000.89
2023-01-27 01:53:00,,0822.0,5.01,0.00,22.2,21.5,00.0,31.0,24.0,09.2,0000.0,0013.16,0003.40,0000.90
2023-01-27 01:54:00,,0821.9,5.00,0.00,22.1,20.9,00.0,31.0,23.7,09.3,0000.0,0013.36,0003.33,0000.88
2023-01-27 01:55:00,,0821.9,4.98,0.00,22.1,20.5,00.0,31.0,23.6,09.4,0000.0,0014.45,0003.38,0000.90
2023-01-27 01:56:00,,0821.9,5.02,0.00,22.0,20.1,00.0,31.0,23.4,09.3,0000.0,0015.45,0003.41,0000.91
2023-01-27 01:57:00,,0822.0,5.01,0.00,21.9,19.8,00.0,31.0,23.2,09.2,0000.0,0016.22,0003.47,0000.92
2023-01-27 01:58:00,,0822.1,5.01,0.00,21.8,19.8,00.0,30.9,23.2,09.1,0000.0,0017.69,0003.50,0000.92
2023-01-27 01:59:00,,0822.3,5.02,0.00,21.9,20.8,00.0,30.8,23.6,09.1,0000.0,0017.75,0003.44,0000.91
